Time,TemperatureF,DewpointF,PressureIn,WindDirection,WindDirectionDegrees,WindSpeedMPH,WindSpeedGustMPH,Humidity,HourlyPrecipIn,Conditions,Clouds,dailyrainin,SolarRadiationWatts/m^2,SoftwareType,DateUTC
2013-02-02 00:14:00,12.7,7.0,30.22,West,271,4.0,-999.0,79,-99.99,,,0.00,0,weatherlink.com 1.10,2013-02-02 05:14:00,
2013-02-02 00:28:00,12.7,8.0,30.22,SW,221,3.0,-999.0,80,-99.99,,,0.00,0,weatherlink.com 1.10,2013-02-02 05:28:00,
2013-02-02 00:44:00,12.7,8.0,30.21,WSW,238,4.0,-999.0,81,-99.99,,,0.00,0,weatherlink.com 1.10,2013-02-02 05:44:00,
2013-02-02 00:59:00,12.7,8.0,30.22,SW,227,11.0,-999.0,82,-99.99,,,0.00,0,weatherlink.com 1.10,2013-02-02 05:59:00,
2013-02-02 01:14:00,12.6,8.0,30.22,SW,227,3.0,-999.0,82,-99.99,,,0.00,0,weatherlink.com 1.10,2013-02-02 06:14:00,
2013-02-02 01:29:00,12.4,8.0,30.22,West,273,3.0,-999.0,81,-99.99,,,0.00,0,weatherlink.com 1.10,2013-02-02 06:29:00,
2013-02-02 01:44:00,12.3,8.0,30.23,WSW,238,0.0,-999.0,81,-99.99,,,0.00,0,weatherlink.com 1.10,2013-02-02 06:44:00,
2013-02-02 01:59:00,12.3,8.0,30.23,WNW,292,6.0,-999.0,81,-99.99,,,0.00,0,weatherlink.com 1.10,2013-02-02 06:59:00,
2013-02-02 02:14:00,12.3,8.0,30.24,WSW,238,1.0,-999.0,81,-99.99,,,0.00,0,weatherlink.com 1.10,2013-02-02 07:14:00,
2013-02-02 02:29:00,12.4,7.0,30.24,WSW,244,0.0,-999.0,80,-99.99,,,0.00,0,weatherlink.com 1.10,2013-02-02 07:29:00,
2013-02-02 02:44:00,12.5,7.0,30.24,SW,217,2.0,-999.0,80,-99.99,,,0.00,0,weatherlink.com 1.10,2013-02-02 07:44:00,
2013-02-02 02:59:00,12.6,8.0,30.23,South,175,4.0,-999.0,80,-99.99,,,0.00,0,weatherlink.com 1.10,2013-02-02 07:59:00,
2013-02-02 03:14:00,12.5,7.0,30.24,SW,215,3.0,-999.0,80,-99.99,,,0.00,0,weatherlink.com 1.10,2013-02-02 08:14:00,
2013-02-02 03:29:00,12.2,7.0,30.24,WSW,246,5.0,-999.0,79,-99.99,,,0.00,0,weatherlink.com 1.10,2013-02-02 08:29:00,
2013-02-02 03:44:00,12.2,7.0,30.25,WSW,253,7.0,-999.0,79,-99.99,,,0.00,0,weatherlink.com 1.10,2013-02-02 08:44:00,
2013-02-02 03:59:00,12.2,7.0,30.24,WSW,250,2.0,-999.0,78,-99.99,,,0.00,0,weatherlink.com 1.10,2013-02-02 08:59:00,
2013-02-02 04:14:00,12.2,7.0,30.24,SW,234,2.0,-999.0,78,-99.99,,,0.00,0,weatherlink.com 1.10,2013-02-02 09:14:00,
2013-02-02 04:29:00,12.1,7.0,30.24,South,190,1.0,-999.0,79,-99.99,,,0.00,0,weatherlink.com 1.10,2013-02-02 09:29:00,
2013-02-02 04:44:00,12.1,7.0,30.24,South,190,7.0,-999.0,80,-99.99,,,0.00,0,weatherlink.com 1.10,2013-02-02 09:44:00,
2013-02-02 04:59:00,12.0,7.0,30.23,South,191,0.0,-999.0,81,-99.99,,,0.00,0,weatherlink.com 1.10,2013-02-02 09:59:00,
2013-02-02 05:14:00,11.9,7.0,30.24,SSW,194,1.0,-999.0,81,-99.99,,,0.00,0,weatherlink.com 1.10,2013-02-02 10:14:00,
2013-02-02 05:29:00,12.0,7.0,30.23,SW,216,1.0,-999.0,81,-99.99,,,0.00,0,weatherlink.com 1.10,2013-02-02 10:29:00,
2013-02-02 05:44:00,12.1,7.0,30.23,SSW,201,2.0,-999.0,81,-99.99,,,0.00,0,weatherlink.com 1.10,2013-02-02 10:44:00,
2013-02-02 05:59:00,12.2,7.0,30.24,SSE,165,0.0,-999.0,81,-99.99,,,0.00,0,weatherlink.com 1.10,2013-02-02 10:59:00,
2013-02-02 06:14:00,12.2,7.0,30.24,South,178,1.0,-999.0,80,-99.99,,,0.00,0,weatherlink.com 1.10,2013-02-02 11:14:00,
2013-02-02 06:29:00,11.9,7.0,30.25,SSW,202,9.0,-999.0,79,-99.99,,,0.00,0,weatherlink.com 1.10,2013-02-02 11:29:00,
2013-02-02 06:44:00,11.6,6.0,30.26,SSW,202,5.0,-999.0,78,-99.99,,,0.00,0,weatherlink.com 1.10,2013-02-02 11:44:00,
2013-02-02 06:59:00,11.3,5.0,30.26,SW,233,1.0,-999.0,77,-99.99,,,0.00,0,weatherlink.com 1.10,2013-02-02 11:59:00,
2013-02-02 07:14:00,11.3,5.0,30.25,SW,234,6.0,-999.0,77,-99.99,,,0.00,0,weatherlink.com 1.10,2013-02-02 12:14:00,
2013-02-02 07:29:00,11.1,5.0,30.26,SSW,209,3.0,-999.0,77,-99.99,,,0.00,11,weatherlink.com 1.10,2013-02-02 12:29:00,
2013-02-02 07:44:00,10.9,5.0,30.26,SSW,194,0.0,-999.0,77,-99.99,,,0.00,19,weatherlink.com 1.10,2013-02-02 12:44:00,
2013-02-02 07:59:00,10.6,4.0,30.26,SW,232,3.0,-999.0,75,-99.99,,,0.00,47,weatherlink.com 1.10,2013-02-02 12:59:00,
2013-02-02 08:14:00,10.4,4.0,30.25,SSW,209,2.0,-999.0,75,-99.99,,,0.00,44,weatherlink.com 1.10,2013-02-02 13:14:00,
2013-02-02 08:29:00,10.8,5.0,30.26,West,263,6.0,-999.0,76,-99.99,,,0.00,118,weatherlink.com 1.10,2013-02-02 13:29:00,
2013-02-02 08:44:00,11.6,5.0,30.26,South,172,7.0,-999.0,74,-99.99,,,0.00,118,weatherlink.com 1.10,2013-02-02 13:44:00,
2013-02-02 08:59:00,12.0,5.0,30.26,SSW,210,2.0,-999.0,72,-99.99,,,0.00,137,weatherlink.com 1.10,2013-02-02 13:59:00,
2013-02-02 09:14:00,12.7,5.0,30.25,South,180,0.0,-999.0,72,-99.99,,,0.00,299,weatherlink.com 1.10,2013-02-02 14:14:00,
2013-02-02 09:29:00,13.4,5.0,30.25,SW,226,2.0,-999.0,70,-99.99,,,0.00,322,weatherlink.com 1.10,2013-02-02 14:29:00,
2013-02-02 09:44:00,14.3,6.0,30.24,SW,225,1.0,-999.0,68,-99.99,,,0.00,353,weatherlink.com 1.10,2013-02-02 14:44:00,
2013-02-02 09:59:00,15.2,6.0,30.24,SSE,166,1.0,-999.0,67,-99.99,,,0.00,385,weatherlink.com 1.10,2013-02-02 14:59:00,
2013-02-02 10:14:00,15.1,6.0,30.22,SSE,164,1.0,-999.0,66,-99.99,,,0.00,392,weatherlink.com 1.10,2013-02-02 15:14:00,
2013-02-02 10:29:00,16.5,6.0,30.22,WSW,242,5.0,-999.0,64,-99.99,,,0.00,438,weatherlink.com 1.10,2013-02-02 15:29:00,
2013-02-02 10:44:00,16.8,5.0,30.21,SSW,194,2.0,-999.0,61,-99.99,,,0.00,478,weatherlink.com 1.10,2013-02-02 15:44:00,
2013-02-02 10:59:00,18.8,7.0,30.20,South,171,6.0,-999.0,60,-99.99,,,0.00,471,weatherlink.com 1.10,2013-02-02 15:59:00,
2013-02-02 11:14:00,18.8,6.0,30.19,SW,235,5.0,-999.0,57,-99.99,,,0.00,466,weatherlink.com 1.10,2013-02-02 16:14:00,
2013-02-02 11:29:00,19.1,6.0,30.18,WSW,255,4.0,-999.0,58,-99.99,,,0.00,499,weatherlink.com 1.10,2013-02-02 16:29:00,
2013-02-02 11:44:00,20.0,6.0,30.18,South,175,6.0,-999.0,56,-99.99,,,0.00,510,weatherlink.com 1.10,2013-02-02 16:44:00,
2013-02-02 11:59:00,20.4,5.0,30.16,SSE,147,3.0,-999.0,51,-99.99,,,0.00,466,weatherlink.com 1.10,2013-02-02 16:59:00,
2013-02-02 12:14:00,20.0,6.0,30.15,WSW,240,5.0,-999.0,54,-99.99,,,0.00,353,weatherlink.com 1.10,2013-02-02 17:14:00,
2013-02-02 12:29:00,19.8,5.0,30.14,WSW,246,3.0,-999.0,52,-99.99,,,0.00,338,weatherlink.com 1.10,2013-02-02 17:29:00,
2013-02-02 12:44:00,20.2,5.0,30.13,SSW,206,11.0,-999.0,52,-99.99,,,0.00,359,weatherlink.com 1.10,2013-02-02 17:44:00,
2013-02-02 12:59:00,21.1,5.0,30.12,SSE,155,6.0,-999.0,50,-99.99,,,0.00,468,weatherlink.com 1.10,2013-02-02 17:59:00,
2013-02-02 13:14:00,21.0,5.0,30.12,South,177,10.0,-999.0,51,-99.99,,,0.00,450,weatherlink.com 1.10,2013-02-02 18:14:00,
2013-02-02 13:29:00,20.8,6.0,30.12,SW,216,1.0,-999.0,53,-99.99,,,0.00,243,weatherlink.com 1.10,2013-02-02 18:29:00,
2013-02-02 13:44:00,20.4,6.0,30.11,SSW,209,4.0,-999.0,55,-99.99,,,0.00,369,weatherlink.com 1.10,2013-02-02 18:44:00,
2013-02-02 13:59:00,19.6,7.0,30.11,SSW,211,5.0,-999.0,58,-99.99,,,0.00,165,weatherlink.com 1.10,2013-02-02 18:59:00,
2013-02-02 14:14:00,19.4,7.0,30.10,WSW,250,14.0,-999.0,58,-99.99,,,0.00,185,weatherlink.com 1.10,2013-02-02 19:14:00,
2013-02-02 14:29:00,19.0,7.0,30.09,SW,223,3.0,-999.0,61,-99.99,,,0.00,160,weatherlink.com 1.10,2013-02-02 19:29:00,
2013-02-02 14:44:00,18.9,7.0,30.10,SSW,198,2.0,-999.0,61,-99.99,,,0.00,213,weatherlink.com 1.10,2013-02-02 19:44:00,
2013-02-02 14:59:00,19.1,6.0,30.09,SSW,196,5.0,-999.0,58,-99.99,,,0.00,181,weatherlink.com 1.10,2013-02-02 19:59:00,
2013-02-02 15:14:00,18.9,6.0,30.09,West,266,4.0,-999.0,58,-99.99,,,0.00,172,weatherlink.com 1.10,2013-02-02 20:14:00,
2013-02-02 15:29:00,18.6,7.0,30.09,South,188,11.0,-999.0,60,-99.99,,,0.00,123,weatherlink.com 1.10,2013-02-02 20:29:00,
2013-02-02 15:44:00,18.2,7.0,30.09,SW,219,6.0,-999.0,62,-99.99,,,0.00,111,weatherlink.com 1.10,2013-02-02 20:44:00,
2013-02-02 15:59:00,17.8,7.0,30.09,SSW,196,3.0,-999.0,64,-99.99,,,0.00,105,weatherlink.com 1.10,2013-02-02 20:59:00,
2013-02-02 16:14:00,17.7,7.0,30.08,SW,236,3.0,-999.0,64,-99.99,,,0.00,83,weatherlink.com 1.10,2013-02-02 21:14:00,
2013-02-02 16:29:00,17.5,8.0,30.09,SW,214,0.0,-999.0,65,-99.99,,,0.00,40,weatherlink.com 1.10,2013-02-02 21:29:00,
2013-02-02 16:44:00,17.3,8.0,30.09,SSW,206,9.0,-999.0,66,-99.99,,,0.00,28,weatherlink.com 1.10,2013-02-02 21:44:00,
2013-02-02 16:59:00,17.1,8.0,30.09,WSW,244,2.0,-999.0,68,-99.99,,,0.00,12,weatherlink.com 1.10,2013-02-02 21:59:00,
2013-02-02 17:14:00,16.7,8.0,30.09,WSW,243,9.0,-999.0,69,-99.99,,,0.00,0,weatherlink.com 1.10,2013-02-02 22:14:00,
2013-02-02 17:29:00,16.4,8.0,30.09,SW,231,3.0,-999.0,69,-99.99,,,0.00,0,weatherlink.com 1.10,2013-02-02 22:29:00,
2013-02-02 17:44:00,16.4,8.0,30.09,South,175,4.0,-999.0,70,-99.99,,,0.00,0,weatherlink.com 1.10,2013-02-02 22:44:00,
2013-02-02 17:59:00,16.2,8.0,30.09,SSW,213,2.0,-999.0,70,-99.99,,,0.00,0,weatherlink.com 1.10,2013-02-02 22:59:00,
2013-02-02 18:14:00,15.9,8.0,30.09,South,172,3.0,-999.0,71,-99.99,,,0.00,0,weatherlink.com 1.10,2013-02-02 23:14:00,
2013-02-02 18:29:00,15.3,8.0,30.09,South,171,4.0,-999.0,72,-99.99,,,0.00,0,weatherlink.com 1.10,2013-02-02 23:29:00,
2013-02-02 18:44:00,14.9,8.0,30.09,SSW,204,9.0,-999.0,73,-99.99,,,0.00,0,weatherlink.com 1.10,2013-02-02 23:44:00,
2013-02-02 18:59:00,14.7,8.0,30.09,WSW,247,2.0,-999.0,73,-99.99,,,0.00,0,weatherlink.com 1.10,2013-02-02 23:59:00,
2013-02-02 19:14:00,14.6,7.0,30.09,SSW,196,2.0,-999.0,73,-99.99,,,0.00,0,weatherlink.com 1.10,2013-02-03 00:14:00,
2013-02-02 19:29:00,14.4,8.0,30.10,SW,227,0.0,-999.0,74,-99.99,,,0.00,0,weatherlink.com 1.10,2013-02-03 00:29:00,
2013-02-02 19:44:00,14.3,8.0,30.10,South,181,2.0,-999.0,75,-99.99,,,0.00,0,weatherlink.com 1.10,2013-02-03 00:44:00,
2013-02-02 19:59:00,14.0,8.0,30.10,SSE,161,2.0,-999.0,76,-99.99,,,0.00,0,weatherlink.com 1.10,2013-02-03 00:59:00,
2013-02-02 20:14:00,13.9,8.0,30.10,WSW,238,3.0,-999.0,77,-99.99,,,0.00,0,weatherlink.com 1.10,2013-02-03 01:14:00,
2013-02-02 20:29:00,13.8,8.0,30.10,SSW,200,0.0,-999.0,78,-99.99,,,0.00,0,weatherlink.com 1.10,2013-02-03 01:29:00,
2013-02-02 20:44:00,13.7,8.0,30.10,SSW,213,1.0,-999.0,79,-99.99,,,0.00,0,weatherlink.com 1.10,2013-02-03 01:44:00,
2013-02-02 20:59:00,13.5,8.0,30.10,SW,216,1.0,-999.0,79,-99.99,,,0.00,0,weatherlink.com 1.10,2013-02-03 01:59:00,
2013-02-02 21:14:00,13.4,8.0,30.11,SW,216,1.0,-999.0,80,-99.99,,,0.00,0,weatherlink.com 1.10,2013-02-03 02:14:00,
2013-02-02 21:29:00,13.2,8.0,30.10,SW,216,0.0,-999.0,80,-99.99,,,0.00,0,weatherlink.com 1.10,2013-02-03 02:29:00,
2013-02-02 21:44:00,13.1,8.0,30.10,SW,216,1.0,-999.0,81,-99.99,,,0.00,0,weatherlink.com 1.10,2013-02-03 02:44:00,
2013-02-02 21:59:00,13.2,8.0,30.09,SW,216,2.0,-999.0,81,-99.99,,,0.00,0,weatherlink.com 1.10,2013-02-03 02:59:00,
2013-02-02 22:14:00,13.4,9.0,30.09,SSE,165,0.0,-999.0,82,-99.99,,,0.00,0,weatherlink.com 1.10,2013-02-03 03:14:00,
2013-02-02 22:29:00,13.6,9.0,30.09,South,179,1.0,-999.0,82,-99.99,,,0.00,0,weatherlink.com 1.10,2013-02-03 03:29:00,
2013-02-02 22:44:00,13.7,9.0,30.09,SW,219,1.0,-999.0,81,-99.99,,,0.00,0,weatherlink.com 1.10,2013-02-03 03:44:00,
2013-02-02 22:59:00,13.8,9.0,30.09,South,190,2.0,-999.0,81,-99.99,,,0.00,0,weatherlink.com 1.10,2013-02-03 03:59:00,
2013-02-02 23:14:00,13.9,9.0,30.08,SSW,192,0.0,-999.0,81,-99.99,,,0.00,0,weatherlink.com 1.10,2013-02-03 04:14:00,
2013-02-02 23:29:00,14.0,9.0,30.09,SSW,197,1.0,-999.0,81,-99.99,,,0.00,0,weatherlink.com 1.10,2013-02-03 04:29:00,
2013-02-02 23:44:00,14.1,9.0,30.08,SSW,198,0.0,-999.0,80,-99.99,,,0.00,0,weatherlink.com 1.10,2013-02-03 04:44:00,
2013-02-02 23:59:00,14.3,9.0,30.07,SSW,198,0.0,-999.0,80,-99.99,,,0.00,0,weatherlink.com 1.10,2013-02-03 04:59:00,